Regional Weather Roundup
Issued by NWS Raleigh/Durham, NC

Home | Current Version | Previous Version | Text Only | Print | Product List | Glossary On
Versions: 1 2 3 4 5 6 7 8 9 10 11 12 13 14 15 16 17 18 19 20 21 22 23 24 25 26 27 28 29 30 31 32 33 34 35 36 37 38 39 40 41 42 43 44 45 46 47 48 49 50
000
ASUS42 KRAH 030610
RWRRAH
NORTH CAROLINA WEATHER ROUNDUP
NATIONAL WEATHER SERVICE RALEIGH NC
200 AM EDT THU SEP 03 2015

NOTE: "FAIR" INDICATES FEW OR NO CLOUDS BELOW 12,000 FEET WITH NO
SIGNIFICANT WEATHER AND/OR OBSTRUCTIONS TO VISIBILITY.

NCZ001-053-055-056-065-067-030700-
WESTERN NORTH CAROLINA

CITY           SKY/WX    TMP DP  RH WIND       PRES   REMARKS
ASHEVILLE      MOCLDY    71  67  87 CALM      30.09F
JEFFERSON      FAIR      69  57  66 CALM      30.15F
MORGANTON      FAIR      68  66  96 CALM      30.08S
HICKORY        FAIR      72  67  84 CALM      30.02F
RUTHERFORDTON  FAIR      76  68  76 CALM      30.02F
MOUNT AIRY     FAIR      70  67  90 NW3       30.05F
BOONE          FAIR      61  61 100 CALM      30.16F FOG
$$

NCZ021-022-025-041-071-084-088-030700-
CENTRAL NORTH CAROLINA

CITY           SKY/WX    TMP DP  RH WIND       PRES   REMARKS
CHARLOTTE      MOCLDY    80  67  64 S3        29.99F
GREENSBORO     FAIR      74  68  81 CALM      30.00F
WINSTON-SALEM  FAIR      72  67  84 N3        30.02F
RALEIGH-DURHAM FAIR      71  69  93 CALM      29.98F
FORT BRAGG     CLOUDY    77  71  82 NE8       29.96S
FAYETTEVILLE   MOCLDY    79  70  74 N6        29.97R
BURLINGTON     FAIR      69  68  96 CALM      29.99F
LAURINBURG     FAIR      74  70  87 SW6       29.97F
$$

NCZ011-015-027-028-043-044-047-080-103-030700-
NORTHEASTERN NORTH CAROLINA

CITY           SKY/WX    TMP DP  RH WIND       PRES   REMARKS
ROCKY MT-WILSO FAIR      71  70  96 SW5       29.96F
GREENVILLE     DRIZZLE   70  70 100 E5        29.97F
WASHINGTON     RAIN      70  68  95 SE10      29.95F
ELIZABETH CITY FAIR      71  69  93 W3        29.94F
MANTEO         FAIR      75  70  84 W9        29.95S
CAPE HATTERAS  CLOUDY    79  73  82 W6        29.95F
$$

NCZ078-087-090-091-093-098-101-030700-
SOUTHEASTERN NORTH CAROLINA

CITY           SKY/WX    TMP DP  RH WIND       PRES   REMARKS
LUMBERTON      FAIR      76  73  91 SW6       29.95F
GOLDSBORO      LGT RAIN  73  70  88 N20G28    30.00R
KINSTON        HVY RAIN  72  69  90 CALM      29.99S
KENANSVILLE      N/A     73  67  82 CALM      29.99F
NEW BERN       LGT RAIN  71  67  87 N10G17    29.99F
CHERRY POINT   MOCLDY    76  67  73 N17G25    29.99F
BEAUFORT       CLOUDY    76  73  91 NW24G31   29.98R
JACKSONVILLE   MOCLDY    75  67  76 NE8       29.97S
WILMINGTON     FAIR      78  73  84 SW7       29.96F
$$



USA.gov is the U.S. government's official web portal to all federal, state and local government web resources and services.